Location: ??????
(56.0120°N, 39.1740°E)
Time: 19:11:41
(UTC+00:00)

Cosmos 2278 Rocket - Pass Details

Date: 14 April 2026
Orbit: 839 x 845 km, 71.0° (Epoch: 19 May)

Event Time Altitude Azimuth Distance (km) Brightness Sun altitude
Rises 17:09:05 0° 325° (NW) 3,419 6.6 -6.1°
Reaches altitude 10° 17:11:33 10° 326° (NNW) 2,480 5.8 -6.4°
Maximum altitude 17:17:15 78° 53° (NE) 872 2.3 -7.1°
Drops below altitude 10° 17:22:56 10° 141° (SE) 2,464 4.0 -7.8°
Enters shadow 17:23:28 - 141° (SE) 2,668 4.2 -7.9°
